GW6173 Weather Reports


time (UTC)temp
F
wind
direction
speed
knots
gust
knots
rain 1hr
in
rain 24hr
in
rain mn
in
humidity
%
barometer
mb
20260503223014 84 277 11.3 15.6 0.00 0.00 0.00 47 1009.7
20260503221515 83 303 7.8 17.4 0.00 0.00 0.00 44 1009.9
20260503220016 84 321 5.2 13.0 0.00 0.00 0.00 47 1010.1
20260503214514 83 269 3.5 12.2 0.00 0.00 0.00 49 1010.2
20260503213015 83 272 3.5 13.0 0.00 0.00 0.00 46 1010.3
20260503211512 82 342 3.5 11.3 0.00 0.00 0.00 50 1010.4
20260503210014 82 302 3.5 9.6 0.00 0.00 0.00 48 1010.7
20260503204516 81 329 4.3 13.0 0.00 0.00 0.00 49 1011.0
20260503203021 80 331 7.8 13.0 0.00 0.00 0.00 51 1011.2
20260503201514 80 323 5.2 9.6 0.00 0.00 0.00 49 1011.3
20260503200016 79 285 7.0 11.3 0.00 0.00 0.00 53 1011.5
20260503194515 78 296 5.2 11.3 0.00 0.00 0.00 54 1011.7
20260503193022 78 286 3.5 8.7 0.00 0.00 0.00 59 1011.8
20260503191516 77 316 6.1 10.4 0.00 0.00 0.00 61 1012.0
20260503190016 75 335 4.3 11.3 0.00 0.00 0.00 63 1012.3
20260503184532 74 312 1.7 9.6 0.00 0.00 0.00 63 1012.4
20260503183015 74 326 2.6 8.7 0.00 0.00 0.00 67 1012.7
20260503181512 73 319 0.9 8.7 0.00 0.00 0.00 61 1012.8
20260503180022 71 275 2.6 7.0 0.00 0.00 0.00 62 1013.0
20260503174515 71 298 1.7 7.0 0.00 0.00 0.00 63 1013.1
20260503173015 70 309 0.9 8.7 0.00 0.00 0.00 62 1013.2
20260503171512 69 333 2.6 6.1 0.00 0.00 0.00 64 1013.3
20260503081516 54 150 0.9 1.7 0.00 0.00 0.00 87 1014.0
20260503071527 56 319 0.9 2.6 0.00 0.00 0.00 80 1013.7
20260503054532 64 360 0.0 3.5 0.00 0.00 0.00 64 1013.9
20260503053033 64 360 1.7 7.0 0.00 0.00 0.00 64 1013.7
20260503051526 64 352 0.0 1.7 0.00 0.00 0.00 65 1013.5
20260503050026 66 352 0.9 4.3 0.00 0.00 0.00 61 1013.2
20260503044526 67 11 2.6 8.7 0.00 0.00 0.00 61 1013.0
20260503043010 68 348 2.6 7.8 0.00 0.00 0.00 60 1012.8
20260503041511 68 313 5.2 9.6 0.00 0.00 0.00 59 1012.6
20260503040009 68 309 6.1 13.0 0.00 0.00 0.00 59 1012.3
20260503034524 69 323 9.6 14.8 0.00 0.00 0.00 57 1012.0
20260503033008 70 319 7.8 14.8 0.00 0.00 0.00 56 1011.8
20260503031506 71 316 7.8 13.0 0.00 0.00 0.00 57 1011.8
20260503030010 71 316 7.0 11.3 0.00 0.00 0.00 57 1011.7
20260503024508 72 331 6.1 11.3 0.00 0.00 0.00 56 1011.6
20260503023007 73 323 6.1 13.9 0.00 0.00 0.00 54 1011.5
20260503021509 74 289 7.0 13.0 0.00 0.00 0.00 53 1011.5
20260503020007 74 331 7.0 15.6 0.00 0.00 0.00 52 1011.5
20260503014514 75 295 5.2 14.8 0.00 0.00 0.00 51 1011.5
20260503013008 75 334 10.4 15.6 0.00 0.00 0.00 50 1011.6
20260503011508 76 9 10.4 16.5 0.00 0.00 0.00 49 1011.5
20260503010008 76 313 12.2 17.4 0.00 0.00 0.00 50 1011.5
20260503004506 76 5 7.8 14.8 0.00 0.00 0.00 50 1011.5
20260503003009 76 352 7.8 14.8 0.00 0.00 0.00 50 1011.6
20260503001508 76 343 7.8 13.9 0.00 0.00 0.00 52 1011.6
20260503000005 76 333 8.7 14.8 0.00 0.00 0.00 50 1011.8
20260502234508 76 348 7.0 14.8 0.00 0.00 0.00 55 1011.8
20260502233008 75 344 11.3 15.6 0.00 0.00 0.00 57 1011.9
20260502230015 75 360 7.0 12.2 0.00 0.00 0.00 57 1012.5
20260502224513 74 17 5.2 12.2 0.00 0.00 0.00 55 1012.7